Location: Aleksandria
(48.6657°N, 33.1137°E)
Time: 01:45:30
(UTC+02:00)

BlueWalker 3 - Pass Details

Date: 05 December 2023
Orbit: 485 x 499 km, 53.2° (Epoch: 03 March)

Event Time Altitude Azimuth Distance (km) Brightness Sun altitude
Exits shadow 05:02:49 24° 188° (S) 1,072 3.6 -22.2°
Drops below altitude 10° 05:04:55 10° 161° (SSE) 1,685 4.9 -21.9°
Sets 05:07:15 0° 149° (SSE) 2,559 6.1 -21.5°
